Location: Asheville, NC
(35.6000°N, 82.5500°W)
Time: 13:52:37
(UTC-04:00)

ZACube-1 - Pass Details

Date: 17 March 2018
Orbit: 584 x 668 km, 97.6° (Epoch: 18 June)

Event Time Altitude Azimuth Distance (km) Brightness Sun altitude
Rises 20:48:49 0° 171° (S) 2,875 ? -14.9°
Reaches altitude 10° 20:51:01 10° 173° (S) 1,960 ? -15.3°
Maximum altitude 20:55:16 75° 258° (WSW) 627 ? -16.1°
Drops below altitude 10° 20:59:27 10° 344° (NNW) 1,931 ? -17.0°
Sets 21:01:36 0° 347° (NNW) 2,828 ? -17.4°
